[[{"header":{"parameterUnit":"m.s-1","parameterCategory":2,"la1":30.2991,"la2":30.254,"lo1":-89.0895,"lo2":-89.0444,"dy":0.0017,"dx":0.0017,"nx":28,"ny":28,"refTime":"2023-08-09T21:00:00:Z","depth":"0","parameterNumber":2,"parameterNumberName":"U-component_of_CURRENTS"},"data":[0,0,0,0,0,0,0,0,0,0,0,0,0,0,0,0,0,0,0,0,0,0,0,0,0,0,0,0,0,0,0,0,0,0,0,0,0,0,0,0,0,0,0,0,0,0,0,0,0,0,0,0,0,0,0,0,0,0,0.4978,0.4979,0,0.4989,0.4989,0.4988,0.49,0.4897,0.4895,0.4893,0.4838,0.4839,0.4839,0,0,0,0,0,0,0,0,0,0,0,0,0,0.497,0.497,0.4978,0.4979,0.4979,0.4989,0.4989,0.4988,0.49,0.4897,0.4895,0.4892,0.4838,0.4839,0.4839,0,0,0,0,0,0,0,0,0,0,0,0,0,0.4973,0.497,0.4978,0.4939,0.4936,0.4989,0.4989,0.4988,0.49,0.4897,0.4894,0.4891,0.4838,0.4839,0.4839,0.4907,0,0,0.4842,0.4842,0,0,0,0,0,0,0,0,0.4972,0.4972,0.4944,0.4942,0.4939,0.4943,0.4966,0.4959,0.4901,0.491,0.4893,0.489,0.4872,0.487,0.4874,0.4905,0.4902,0.4842,0.4842,0.4843,0.4843,0,0,0,0,0,0,0,0.4972,0.4972,0.4978,0.4945,0.4942,0.4952,0.4948,0.4965,0.4904,0.4909,0.4903,0.4912,0.4869,0.4874,0.4872,0.4902,0.4842,0.4842,0.4843,0.4843,0.5051,0.5055,0,0,0,0,0,0,0.4978,0.4972,0.4978,0.4979,0.4953,0.4955,0.495,0.4942,0.4905,0.4898,0.4915,0.4908,0.4874,0.4871,0.487,0.4946,0.4843,0.4843,0.4844,0.5046,0.5052,0.5057,0,0,0,0,0,0,0.4978,0.4978,0.4977,0.498,0.4981,0.4958,0.495,0.4944,0.4954,0.4911,0.4901,0.4932,0.4872,0.4869,0.492,0.4943,0.4844,0.4844,0.504,0.5047,0.5054,0.51,0,0,0,0,0,0,0.4977,0.4977,0.4993,0.498,0.4981,0.5045,0.4953,0.4946,0.4966,0.4957,0.4924,0.4915,0.4869,0.4919,0.492,0.4942,0.4845,0.5033,0.5043,0.5052,0.5093,0.5109,0.5122,0,0,0,0,0,0.4976,0.5025,0.4993,0.4996,0.4996,0.5049,0.5053,0.5022,0.497,0.5011,0.4985,0.4916,0.498,0.4925,0.4924,0.4947,0.5029,0.504,0.5051,0.5086,0.5105,0.5122,0,0,0,0,0,0,0.5059,0.5021,0.4985,0.5025,0.5046,0.5036,0.5075,0.5046,0.5058,0.5041,0.4978,0.4972,0.504,0.5015,0.4955,0.5049,0.4995,0.5007,0.5022,0.504,0.5055,0.5054,0.4846,0,0,0,0,0,0.5078,0.5083,0.5071,0.511,0.5118,0.5097,0.5116,0.5097,0.5099,0.5098,0.5071,0.5064,0.5093,0.5079,0.5117,0.5152,0.5174,0.5178,0.5193,0.5205,0.5214,0.5317,0.534,0.5095,0.5094,0.5094,0,0,0.5123,0.5105,0.511,0.5126,0.5127,0.515,0.5101,0.5147,0.5157,0.5095,0.5117,0.5137,0.5132,0.5182,0.5205,0.5146,0.5289,0.5219,0.5228,0.5231,0.5331,0.5354,0.5375,0.5102,0.5101,0.51,0,0,0.5201,0.5197,0.5209,0.5227,0.524,0.5232,0.525,0.5251,0.5245,0.5285,0.5253,0.5302,0.5308,0.5314,0.5313,0.5448,0.5398,0.545,0.547,0.557,0.5589,0.5606,0.5653,0.5675,0.5414,0.5415,0.5415,0,0.5252,0.5249,0.5241,0.5259,0.5269,0.5265,0.5287,0.5306,0.5324,0.5322,0.5305,0.5367,0.5374,0.5417,0.546,0.5474,0.5502,0.5379,0.5583,0.5601,0.5617,0.5662,0.5684,0.5418,0.5418,0.5417,0.5417,0,0.5312,0.532,0.535,0.5332,0.5362,0.5405,0.5404,0.5434,0.5417,0.541,0.5477,0.5512,0.5524,0.5553,0.5533,0.5647,0.5621,0.5615,0.5515,0.5644,0.5684,0.5706,0.5423,0.5422,0.5421,0.542,0,0,0.5371,0.5378,0.538,0.536,0.5395,0.5409,0.5456,0.5475,0.5465,0.5522,0.5522,0.5621,0.5622,0.5632,0.5634,0.5711,0.5861,0.5699,0.5702,0.5707,0.6046,0.5871,0.5877,0.5876,0.588,0.5884,0.6019,0,0.5404,0.542,0.5424,0.5445,0.5447,0.5458,0.5484,0.5506,0.5517,0.5532,0.559,0.5624,0.5651,0.5654,0.5748,0.5833,0.5926,0.5823,0.5955,0.5959,0.5756,0.5901,0.5545,0.5622,0.604,0.6044,0.6047,0,0.5429,0.5429,0.5444,0.5434,0.5435,0.5453,0.5452,0.548,0.5521,0.5529,0.5582,0.5613,0.5728,0.5746,0.596,0.5883,0.5989,0.6063,0.6069,0.5903,0.5827,0.5571,0.5647,0.5453,0.6081,0.6078,0.6076,0,0.541,0.543,0.5425,0.543,0.5439,0.5438,0.5446,0.5473,0.5472,0.5532,0.5533,0.5659,0.5704,0.5885,0.6013,0.6006,0.6235,0.6238,0.6191,0.6177,0.59,0.5853,0.5767,0.6448,0.6448,0.6448,0.6447,0,0.5417,0.5409,0.5406,0.5401,0.5381,0.5403,0.5384,0.5411,0.5438,0.5437,0.5527,0.5549,0.5751,0.5868,0.6026,0.6142,0.6253,0.6227,0.6219,0.5906,0.586,0.5697,0.5631,0.6453,0.6451,0.645,0.645,0,0.5386,0.5397,0.5378,0.5375,0.5367,0.5349,0.5332,0.5316,0.5362,0.5369,0.5393,0.5491,0.5633,0.58,0.6058,0.6111,0.6079,0.6299,0.588,0.582,0.5561,0.5512,0.5372,0.5248,0.6274,0.6271,0.6268,0,0.5365,0.5353,0.5335,0.531,0.5304,0.5275,0.525,0.5278,0.5266,0.5325,0.5328,0.5441,0.5485,0.5724,0.5841,0.6032,0.5943,0.5814,0.5763,0.5509,0.5453,0.5351,0.5251,0.5424,0.5415,0.5407,0.5401,0,0.531,0.5306,0.5287,0.5234,0.5199,0.5153,0.5131,0.5103,0.5141,0.5146,0.5167,0.5207,0.5358,0.5316,0.5494,0.56,0.5452,0.5661,0.5523,0.4885,0.4646,0.4529,0.5355,0.5332,0.5339,0.5344,0.5348,0.535,0.5251,0.5223,0.5185,0.5119,0.5074,0.4999,0.4899,0.4898,0.4846,0.4751,0.4934,0.482,0.4836,0.5004,0.5088,0.4879,0.5051,0.4739,0.4738,0.4689,0.4434,0.5082,0.4968,0.4973,0.4977,0.498,0.4983,0,0.5131,0.5104,0.5058,0.4947,0.4819,0.4852,0.4768,0.4623,0.4491,0.4452,0.4414,0.4216,0.4123,0.416,0.4071,0.3957,0.3907,0.3842,0.3606,0.3594,0.4253,0.4074,0.3604,0.3604,0.3604,0.3604,0.3605,0.3605,0.5062,0.497,0.4937,0.4693,0.4603,0.4351,0.4259,0.4107,0.4003,0.3681,0.3448,0.3436,0.3474,0.3387,0.3214,0.3181,0.3033,0.2844,0.3011,0.3417,0.35,0.358,0.3395,0.279,0.2789,0.2163,0.2157,0.2153]},{"header":{"parameterUnit":"m.s-1","parameterCategory":2,"la1":30.2991,"la2":30.254,"lo1":-89.0895,"lo2":-89.0444,"dy":0.0017,"dx":0.0017,"nx":28,"ny":28,"refTime":"2023-08-09T21:00:00:Z","depth":"0","parameterNumber":3,"parameterNumberName":"V-component_of_CURRENTS"},"data":[0,0,0,0,0,0,0,0,0,0,0,0,0,0,0,0,0,0,0,0,0,0,0,0,0,0,0,0,0,0,0,0,0,0,0,0,0,0,0,0,0,0,0,0,0,0,0,0,0,0,0,0,0,0,0,0,0,0,0.0559,0.0559,0,0.0609,0.0609,0.061,0.0551,0.0549,0.0547,0.0545,0.0521,0.0522,0.0524,0,0,0,0,0,0,0,0,0,0,0,0,0,0.0473,0.0474,0.0559,0.0559,0.056,0.0609,0.0609,0.061,0.0552,0.0549,0.0546,0.0544,0.0521,0.0522,0.0524,0,0,0,0,0,0,0,0,0,0,0,0,0,0.0515,0.0475,0.0559,0.0537,0.0535,0.0608,0.0609,0.061,0.0552,0.0549,0.0545,0.0542,0.052,0.0522,0.0524,0.0603,0,0,0.0531,0.0532,0,0,0,0,0,0,0,0,0.0513,0.0518,0.0539,0.0538,0.0537,0.057,0.057,0.0604,0.0553,0.0546,0.0545,0.0541,0.0533,0.0534,0.0552,0.0602,0.0601,0.0531,0.0532,0.0533,0.0534,0,0,0,0,0,0,0,0.051,0.0516,0.0578,0.054,0.0539,0.0545,0.0547,0.0577,0.0556,0.0546,0.0542,0.0549,0.0531,0.055,0.0551,0.0601,0.0531,0.0533,0.0534,0.0535,0.0743,0.0747,0,0,0,0,0,0,0.0504,0.0514,0.0577,0.058,0.0516,0.0549,0.0551,0.0563,0.0557,0.0554,0.0551,0.0546,0.0548,0.0548,0.0549,0.0659,0.0533,0.0535,0.0536,0.0739,0.0744,0.0749,0,0,0,0,0,0,0.0503,0.051,0.0575,0.0547,0.0555,0.0553,0.0568,0.0566,0.0582,0.0562,0.0556,0.0569,0.0545,0.0546,0.0603,0.0656,0.0536,0.0538,0.0734,0.0741,0.0746,0.0867,0,0,0,0,0,0,0.05,0.0509,0.0521,0.0547,0.0557,0.0635,0.0571,0.0569,0.0591,0.0584,0.0576,0.057,0.0543,0.0601,0.0605,0.0657,0.054,0.0729,0.0737,0.0744,0.0858,0.0877,0.0894,0,0,0,0,0,0.0497,0.0532,0.0522,0.0529,0.0572,0.0638,0.0645,0.0631,0.0595,0.0628,0.0627,0.057,0.0654,0.0607,0.0611,0.0664,0.0725,0.0735,0.0744,0.085,0.0873,0.0893,0,0,0,0,0,0,0.0519,0.053,0.0519,0.0559,0.06,0.0627,0.0655,0.0649,0.0677,0.0664,0.063,0.0628,0.07,0.0682,0.063,0.0753,0.0679,0.069,0.0759,0.078,0.0798,0.0798,0.0541,0,0,0,0,0,0.0528,0.0543,0.0574,0.0611,0.0631,0.0647,0.067,0.067,0.0695,0.0702,0.0704,0.0714,0.075,0.076,0.079,0.0861,0.0822,0.09,0.0918,0.0933,0.0942,0.0962,0.0981,0.078,0.078,0.078,0,0,0.0551,0.0556,0.0569,0.0615,0.0638,0.0702,0.0653,0.0706,0.0761,0.0699,0.0777,0.0783,0.0788,0.0866,0.0895,0.0849,0.0967,0.0945,0.0957,0.0958,0.0974,0.0993,0.101,0.0787,0.0786,0.0785,0,0,0.0608,0.0611,0.0643,0.0684,0.0726,0.075,0.077,0.0817,0.0835,0.0918,0.089,0.0937,0.0987,0.1007,0.1019,0.1162,0.1068,0.1165,0.1243,0.1265,0.128,0.1293,0.1242,0.1249,0.1164,0.1164,0.1164,0,0.0636,0.0676,0.0673,0.0726,0.0767,0.0777,0.0848,0.0893,0.0956,0.0987,0.0956,0.106,0.106,0.1153,0.1195,0.12,0.1164,0.1152,0.1283,0.1296,0.1307,0.1251,0.1258,0.1171,0.117,0.1169,0.1169,0,0.0717,0.0759,0.0794,0.0852,0.0904,0.0974,0.1028,0.1086,0.1103,0.1137,0.1234,0.1253,0.1298,0.1319,0.1295,0.1391,0.1321,0.1305,0.1216,0.1334,0.1268,0.1273,0.1181,0.1178,0.1176,0.1175,0,0,0.0756,0.0832,0.0844,0.0885,0.0973,0.1026,0.1132,0.1226,0.1281,0.1348,0.1425,0.1504,0.1488,0.1504,0.149,0.1511,0.1551,0.144,0.1438,0.1364,0.1538,0.1402,0.1392,0.1546,0.1549,0.1551,0.1448,0,0.0823,0.0922,0.0952,0.1074,0.1135,0.1184,0.1278,0.136,0.1414,0.1497,0.1533,0.16,0.1566,0.1579,0.1608,0.1576,0.1574,0.1576,0.1456,0.1452,0.1298,0.1399,0.1348,0.1246,0.1452,0.1452,0.1453,0,0.0891,0.0943,0.1056,0.1161,0.1194,0.1269,0.1391,0.1478,0.1588,0.1624,0.1696,0.171,0.1775,0.1718,0.1718,0.1713,0.1637,0.1597,0.1591,0.1426,0.1327,0.1171,0.1245,0.1091,0.1459,0.1459,0.1458,0,0.0895,0.1019,0.1099,0.1142,0.1268,0.1324,0.1396,0.151,0.1587,0.1696,0.1749,0.1817,0.1844,0.1811,0.1727,0.1721,0.1685,0.1662,0.1464,0.145,0.1364,0.1339,0.1258,0.1652,0.1652,0.1652,0.1653,0,0.0948,0.1012,0.1101,0.1148,0.1249,0.1329,0.1445,0.1522,0.1642,0.1748,0.18,0.1881,0.1871,0.185,0.176,0.1616,0.1705,0.1488,0.1436,0.1402,0.1382,0.1207,0.1145,0.1648,0.1649,0.165,0.1651,0,0.0939,0.1002,0.1093,0.1211,0.1251,0.1317,0.1463,0.1554,0.165,0.1788,0.1826,0.1928,0.1904,0.1837,0.1764,0.1636,0.1415,0.1436,0.1355,0.1296,0.0957,0.0904,0.0746,0.071,0.1211,0.1207,0.1204,0,0.0944,0.0989,0.1111,0.1168,0.122,0.1326,0.1417,0.1543,0.1645,0.1821,0.1894,0.1921,0.1972,0.1788,0.158,0.1372,0.1277,0.1136,0.1134,0.0936,0.0841,0.0804,0.0786,0.1056,0.1052,0.1049,0.1047,0,0.0953,0.0987,0.106,0.1166,0.1259,0.1377,0.1508,0.159,0.1757,0.1872,0.2017,0.2071,0.1907,0.1713,0.1395,0.1237,0.1015,0.1055,0.0915,0.0766,0.0663,0.0603,0.1072,0.1017,0.102,0.1022,0.1024,0.1025,0.0948,0.0988,0.1081,0.118,0.1294,0.1435,0.1522,0.1673,0.1835,0.2022,0.2077,0.2157,0.1844,0.1435,0.1198,0.0685,0.078,0.0547,0.0509,0.0496,0.0444,0.0797,0.0645,0.0646,0.0646,0.0647,0.0648,0,0.0944,0.1002,0.1099,0.1231,0.1351,0.1418,0.1596,0.169,0.1864,0.2042,0.216,0.2013,0.1609,0.1197,0.0533,0.0219,0.0175,0.0053,0.0034,0.0057,0.0419,0.0394,0.0103,0.0103,0.0103,0.0104,0.0104,0.0104,0.095,0.1023,0.1076,0.1254,0.1358,0.1501,0.1597,0.1734,0.1868,0.2015,0.2045,0.2075,0.1724,0.0637,-0.0099,-0.0244,-0.0341,-0.0439,-0.0452,-0.0189,-0.0144,-0.0101,-0.0139,-0.0536,-0.0536,-0.0773,-0.0776,-0.0778]}],[{"header":{"parameterUnit":"m.s-1","parameterCategory":2,"la1":30.2991,"la2":30.254,"lo1":-89.0895,"lo2":-89.0444,"dy":0.0017,"dx":0.0017,"nx":28,"ny":28,"refTime":"2023-08-09T21:00:00:Z","depth":"2","parameterNumber":2,"parameterNumberName":"U-component_of_CURRENTS"},"data":[0,0,0,0,0,0,0,0,0,0,0,0,0,0,0,0,0,0,0,0,0,0,0,0,0,0,0,0,0,0,0,0,0,0,0,0,0,0,0,0,0,0,0,0,0,0,0,0,0,0,0,0,0,0,0,0,0,0,0.2802,0.2803,0,0.2876,0.2877,0.2878,0.3021,0.3024,0.3027,0.3029,0.3453,0.3462,0.347,0,0,0,0,0,0,0,0,0,0,0,0,0,0.2813,0.2812,0.2802,0.2803,0.2804,0.2876,0.2877,0.2878,0.302,0.3024,0.3027,0.3031,0.3451,0.3461,0.3471,0,0,0,0,0,0,0,0,0,0,0,0,0,0.2839,0.2811,0.2802,0.2884,0.2892,0.2876,0.2877,0.2878,0.302,0.3024,0.3028,0.3032,0.3447,0.346,0.3472,0.3466,0,0,0.3512,0.3518,0,0,0,0,0,0,0,0,0.2837,0.2838,0.2871,0.2879,0.2888,0.2945,0.3037,0.3093,0.3019,0.297,0.3029,0.3034,0.3313,0.3337,0.3335,0.3486,0.3504,0.3513,0.3521,0.3526,0.353,0,0,0,0,0,0,0,0.2835,0.2836,0.2831,0.2872,0.2882,0.2928,0.2936,0.3046,0.3122,0.2975,0.2986,0.2994,0.3321,0.3322,0.3347,0.351,0.3513,0.3524,0.3532,0.3537,0.3837,0.3837,0,0,0,0,0,0,0.2821,0.2833,0.2828,0.2833,0.2874,0.2924,0.2933,0.2921,0.3114,0.3145,0.299,0.3,0.3298,0.3332,0.3364,0.3481,0.3526,0.3538,0.3546,0.3837,0.3837,0.3838,0,0,0,0,0,0,0.282,0.2818,0.2825,0.2838,0.2842,0.2919,0.2905,0.292,0.2981,0.3122,0.3161,0.3042,0.3303,0.3345,0.3496,0.3496,0.3544,0.3556,0.3837,0.3837,0.3837,0.3646,0,0,0,0,0,0,0.282,0.2817,0.2821,0.2835,0.2841,0.2842,0.2901,0.2919,0.2976,0.2992,0.3178,0.3218,0.3309,0.3475,0.3508,0.3515,0.3566,0.3836,0.3837,0.3837,0.3652,0.364,0.363,0,0,0,0,0,0.2819,0.2794,0.2819,0.2821,0.2836,0.2842,0.285,0.2919,0.2975,0.2992,0.312,0.3215,0.3502,0.3485,0.3524,0.3534,0.3836,0.3837,0.3837,0.3658,0.3643,0.363,0,0,0,0,0,0,0.2789,0.2806,0.2835,0.2815,0.2844,0.2868,0.2889,0.2934,0.3036,0.3083,0.3221,0.3267,0.3404,0.3495,0.3474,0.3624,0.3684,0.3692,0.3534,0.3522,0.3511,0.3519,0.3577,0,0,0,0,0,0.2781,0.2776,0.2802,0.2788,0.2806,0.2855,0.2876,0.2923,0.3001,0.3051,0.3172,0.3309,0.3418,0.3494,0.3615,0.3691,0.38,0.3725,0.3714,0.3703,0.3737,0.3878,0.3882,0.3839,0.3839,0.3839,0,0,0.2756,0.2772,0.2766,0.2784,0.2815,0.2827,0.288,0.2917,0.2944,0.3086,0.3187,0.3294,0.3438,0.3522,0.359,0.3608,0.3762,0.3704,0.3693,0.3735,0.3879,0.3884,0.3887,0.384,0.3839,0.3839,0,0,0.2703,0.273,0.2718,0.2745,0.2798,0.2828,0.2848,0.2903,0.2957,0.3042,0.3149,0.3247,0.3423,0.3491,0.3554,0.3558,0.3709,0.3608,0.3546,0.3679,0.3684,0.369,0.3779,0.3794,0.3586,0.3585,0.3585,0,0.2697,0.2676,0.2715,0.2722,0.2749,0.2831,0.2838,0.2879,0.298,0.3036,0.3076,0.3309,0.3399,0.3503,0.3478,0.3531,0.3637,0.3571,0.3662,0.3671,0.368,0.3771,0.379,0.3576,0.3577,0.3578,0.3579,0,0.2632,0.2642,0.264,0.268,0.2706,0.273,0.2792,0.2851,0.2932,0.299,0.3134,0.3233,0.3386,0.3387,0.3428,0.3526,0.3587,0.3636,0.3685,0.3672,0.3769,0.3792,0.3563,0.3566,0.3569,0.3571,0,0,0.2588,0.2596,0.261,0.2631,0.2702,0.2718,0.2768,0.2845,0.2916,0.301,0.3104,0.3205,0.3297,0.3374,0.3437,0.3497,0.358,0.3577,0.3589,0.3645,0.3874,0.3648,0.3653,0.3662,0.3666,0.367,0.3893,0,0.2558,0.2544,0.2564,0.2586,0.2598,0.2685,0.2728,0.2815,0.291,0.3019,0.3129,0.3257,0.3284,0.3354,0.3425,0.3576,0.3647,0.3515,0.3901,0.3912,0.3696,0.3674,0.33,0.3446,0.3918,0.3922,0.3925,0,0.2525,0.2523,0.2519,0.257,0.2588,0.2621,0.2745,0.2794,0.2949,0.303,0.3171,0.3289,0.3413,0.3427,0.3692,0.3625,0.3747,0.3828,0.3841,0.3729,0.373,0.3553,0.3474,0.3966,0.3963,0.396,0.3957,0,0.2506,0.2516,0.2517,0.2533,0.2586,0.2632,0.2691,0.2823,0.2901,0.3064,0.3167,0.3344,0.3488,0.3655,0.3829,0.3797,0.4111,0.4099,0.4013,0.3999,0.3805,0.3764,0.4297,0.4297,0.4297,0.4296,0.4295,0,0.2489,0.25,0.2517,0.2526,0.2571,0.2625,0.2717,0.28,0.2948,0.3061,0.3204,0.3331,0.3567,0.3766,0.388,0.4016,0.4187,0.401,0.4044,0.3717,0.3667,0.4237,0.4227,0.4304,0.4303,0.4301,0.43,0,0.2474,0.2481,0.2491,0.2537,0.2564,0.2611,0.273,0.2799,0.295,0.3105,0.317,0.3403,0.3638,0.3842,0.4119,0.4087,0.4218,0.4235,0.3796,0.3767,0.3999,0.3977,0.413,0.4124,0.4119,0.4115,0.4111,0,0.2454,0.2454,0.2497,0.2515,0.2546,0.2616,0.2671,0.2799,0.2875,0.3134,0.3208,0.3481,0.3631,0.391,0.385,0.3966,0.4217,0.372,0.3538,0.3964,0.3985,0.3971,0.3957,0.322,0.3209,0.32,0.3193,0,0.2419,0.2452,0.2459,0.2497,0.2548,0.2593,0.2684,0.2736,0.2903,0.303,0.3216,0.335,0.3511,0.3405,0.35,0.3517,0.3635,0.3536,0.419,0.3268,0.311,0.3127,0.3144,0.3116,0.3124,0.3129,0.3134,0.3137,0.2408,0.2413,0.244,0.2482,0.254,0.259,0.2583,0.267,0.2771,0.288,0.3042,0.3111,0.3117,0.3001,0.2959,0.2896,0.3113,0.3045,0.3073,0.311,0.2912,0.2747,0.265,0.2655,0.2659,0.2663,0.2666,0,0.2396,0.2411,0.2421,0.2471,0.2539,0.2593,0.26,0.2522,0.2567,0.2662,0.2725,0.2477,0.2406,0.2533,0.2204,0.2129,0.2121,0.2177,0.216,0.2233,0.23,0.2063,0.1576,0.1574,0.1572,0.157,0,0,0.2391,0.2397,0.24,0.2479,0.2547,0.2491,0.2478,0.2351,0.2296,0.2189,0.2178,0.2262,0.2384,0.1943,0.1836,0.1684,0.1977,0.1631,0.2483,0.2534,0.2599,0.2752,0.2461,0,0,0,0,0]},{"header":{"parameterUnit":"m.s-1","parameterCategory":2,"la1":30.2991,"la2":30.254,"lo1":-89.0895,"lo2":-89.0444,"dy":0.0017,"dx":0.0017,"nx":28,"ny":28,"refTime":"2023-08-09T21:00:00:Z","depth":"2","parameterNumber":3,"parameterNumberName":"V-component_of_CURRENTS"},"data":[0,0,0,0,0,0,0,0,0,0,0,0,0,0,0,0,0,0,0,0,0,0,0,0,0,0,0,0,0,0,0,0,0,0,0,0,0,0,0,0,0,0,0,0,0,0,0,0,0,0,0,0,0,0,0,0,0,0,-0.048,-0.0481,0,-0.0487,-0.0487,-0.0487,-0.0483,-0.0483,-0.0483,-0.0483,-0.0417,-0.0415,-0.0413,0,0,0,0,0,0,0,0,0,0,0,0,0,-0.0458,-0.0458,-0.048,-0.0481,-0.0481,-0.0487,-0.0487,-0.0487,-0.0483,-0.0483,-0.0483,-0.0483,-0.0417,-0.0415,-0.0413,0,0,0,0,0,0,0,0,0,0,0,0,0,-0.0463,-0.0458,-0.048,-0.0482,-0.0483,-0.0487,-0.0487,-0.0487,-0.0483,-0.0483,-0.0483,-0.0483,-0.0418,-0.0415,-0.0413,-0.0391,0,0,-0.0404,-0.0403,0,0,0,0,0,0,0,0,-0.0463,-0.0464,-0.0482,-0.0482,-0.0483,-0.0487,-0.0455,-0.0452,-0.0483,-0.0479,-0.0483,-0.0483,-0.0436,-0.0432,-0.0428,-0.0388,-0.0385,-0.0404,-0.0402,-0.0401,-0.04,0,0,0,0,0,0,0,-0.0463,-0.0463,-0.0479,-0.0482,-0.0483,-0.0481,-0.0482,-0.0455,-0.0452,-0.0479,-0.048,-0.0486,-0.0435,-0.0431,-0.0427,-0.0385,-0.0404,-0.0401,-0.04,-0.0399,-0.032,-0.032,0,0,0,0,0,0,-0.0469,-0.0463,-0.0479,-0.048,-0.0477,-0.0482,-0.0482,-0.0483,-0.0454,-0.0452,-0.0486,-0.0486,-0.0436,-0.043,-0.0424,-0.0382,-0.0401,-0.0398,-0.0397,-0.0321,-0.032,-0.032,0,0,0,0,0,0,-0.0468,-0.047,-0.0479,-0.0475,-0.0476,-0.0483,-0.0483,-0.0483,-0.0496,-0.0461,-0.0456,-0.0501,-0.0436,-0.0428,-0.0398,-0.038,-0.0397,-0.0394,-0.0321,-0.0321,-0.032,-0.0307,0,0,0,0,0,0,-0.0467,-0.0469,-0.0481,-0.0475,-0.0477,-0.0472,-0.0483,-0.0483,-0.05,-0.0501,-0.0472,-0.0465,-0.0435,-0.0402,-0.0395,-0.0376,-0.0392,-0.0322,-0.0321,-0.032,-0.0307,-0.0306,-0.0304,0,0,0,0,0,-0.0466,-0.0459,-0.0481,-0.0484,-0.0489,-0.0472,-0.0472,-0.0475,-0.0501,-0.0491,-0.0478,-0.0467,-0.0393,-0.0399,-0.0391,-0.0371,-0.0322,-0.0321,-0.032,-0.0308,-0.0306,-0.0304,0,0,0,0,0,0,-0.0444,-0.0459,-0.0482,-0.0479,-0.0481,-0.0472,-0.0471,-0.0488,-0.0475,-0.0482,-0.0459,-0.0449,-0.0419,-0.0401,-0.0409,-0.0349,-0.0357,-0.0354,-0.0351,-0.0348,-0.0346,-0.029,-0.039,0,0,0,0,0,-0.0451,-0.0456,-0.0466,-0.0466,-0.0471,-0.0484,-0.0486,-0.049,-0.0478,-0.0475,-0.0461,-0.044,-0.0407,-0.0384,-0.0358,-0.0321,-0.0299,-0.0305,-0.0303,-0.0302,-0.0251,-0.0224,-0.0214,-0.0317,-0.0317,-0.0317,0,0,-0.0439,-0.0454,-0.0454,-0.0464,-0.047,-0.044,-0.0483,-0.0483,-0.0449,-0.0468,-0.0429,-0.0439,-0.04,-0.0357,-0.0341,-0.0338,-0.0269,-0.03,-0.0299,-0.0248,-0.0222,-0.0211,-0.0202,-0.0317,-0.0317,-0.0317,0,0,-0.039,-0.0436,-0.0411,-0.0413,-0.0428,-0.0429,-0.0436,-0.0442,-0.044,-0.0416,-0.0419,-0.0412,-0.0375,-0.0331,-0.0305,-0.0277,-0.027,-0.0291,-0.022,-0.0196,-0.0186,-0.0178,-0.017,-0.016,-0.0279,-0.0279,-0.0279,0,-0.038,-0.0347,-0.0399,-0.037,-0.0354,-0.0421,-0.0368,-0.0373,-0.0368,-0.0345,-0.0397,-0.0341,-0.0345,-0.0247,-0.0251,-0.0267,-0.0262,-0.0233,-0.0192,-0.0182,-0.0173,-0.0167,-0.0157,-0.0278,-0.0278,-0.0278,-0.0279,0,-0.0291,-0.0277,-0.0263,-0.0246,-0.0239,-0.0212,-0.0224,-0.0223,-0.0259,-0.0257,-0.0217,-0.0234,-0.0185,-0.0213,-0.0223,-0.0156,-0.0179,-0.0205,-0.0194,-0.0162,-0.0158,-0.0148,-0.0277,-0.0278,-0.0278,-0.0278,0,0,-0.0229,-0.0202,-0.0198,-0.016,-0.017,-0.0141,-0.0104,-0.0061,-0.0013,-0.0061,0.0022,0.0004,-0.004,-0.0012,-0.0045,-0.0039,-0.0024,-0.0098,-0.0097,-0.0083,0.0019,-0.0057,-0.0054,-0.0053,-0.005,-0.0048,-0.0016,0,-0.0138,-0.0044,-0.0057,0.0039,0.009,0.0052,0.0113,0.0128,0.0113,0.0163,0.0125,0.0162,0.005,0.0054,0.0047,0.0016,0.0011,-0.003,-0.0017,-0.0015,-0.0081,-0.0041,-0.0076,-0.0055,-0.0005,-0.0004,-0.0002,0,-0.0034,0.0015,0.0125,0.0207,0.0227,0.0265,0.0343,0.0383,0.0414,0.0405,0.0409,0.0366,0.0385,0.0257,0.024,0.0215,0.0125,0.0072,0.0071,0.0021,-0.007,-0.0072,-0.0037,0.0015,0.0014,0.0013,0.0012,0,0.0063,0.0151,0.0246,0.0268,0.0338,0.0382,0.0414,0.045,0.0513,0.054,0.0589,0.0577,0.0594,0.0499,0.0348,0.0301,0.0314,0.024,0.0093,0.0086,0.0076,0.0064,0.0223,0.0223,0.0223,0.0222,0.0222,0,0.0177,0.0254,0.0291,0.0342,0.0465,0.0471,0.0588,0.0611,0.0681,0.0788,0.0708,0.0804,0.065,0.0619,0.045,0.0319,0.0391,0.014,0.0106,0.0072,0.006,0.0143,0.0133,0.0224,0.0223,0.0223,0.0223,0,0.0275,0.0296,0.0406,0.0483,0.0506,0.0583,0.0677,0.0775,0.0809,0.0951,0.0967,0.1,0.0953,0.0779,0.065,0.0469,0.0329,0.0247,0.0204,0.0162,0.0058,0.0049,0.0122,0.012,0.0118,0.0117,0.0116,0,0.0344,0.0405,0.0492,0.0548,0.0575,0.0671,0.0758,0.082,0.093,0.1083,0.1192,0.1186,0.1207,0.0992,0.0653,0.0365,0.0342,0.0149,0.0046,0.0098,0.0056,0.0049,0.0042,0.0028,0.0026,0.0025,0.0024,0,0.0475,0.0481,0.0564,0.0664,0.0747,0.0871,0.0991,0.1102,0.121,0.133,0.15,0.152,0.1289,0.0994,0.0575,0.0375,0.0187,0.0107,0.0227,0.004,0.0007,-0.0035,-0.0037,0.001,0.0012,0.0012,0.0013,0.0014,0.0559,0.0632,0.0708,0.0806,0.0905,0.1062,0.1179,0.1318,0.1502,0.1636,0.1665,0.1636,0.1314,0.0737,0.0438,0.0091,0.0087,-0.0056,-0.0049,-0.0041,-0.0076,-0.0113,-0.0138,-0.0138,-0.0138,-0.0137,-0.0137,0,0.0681,0.0737,0.0847,0.0977,0.1096,0.113,0.1339,0.1432,0.1627,0.1687,0.1727,0.1387,0.1073,0.0743,0.0176,-0.0133,-0.0137,-0.0182,-0.0141,-0.0129,-0.0118,-0.0155,-0.0239,-0.0239,-0.0239,-0.0239,0,0,0.0755,0.0872,0.092,0.1111,0.12,0.1352,0.1472,0.1578,0.1631,0.166,0.159,0.1454,0.1093,0.0673,0.0282,0.0015,0.0025,-0.0022,0.0072,0.0172,0.0188,-0.0053,-0.0098,0,0,0,0,0]}],[{"header":{"parameterUnit":"m.s-1","parameterCategory":2,"la1":30.2991,"la2":30.254,"lo1":-89.0895,"lo2":-89.0444,"dy":0.0017,"dx":0.0017,"nx":28,"ny":28,"refTime":"2023-08-09T21:00:00:Z","depth":"4","parameterNumber":2,"parameterNumberName":"U-component_of_CURRENTS"},"data":[0,0,0,0,0,0,0,0,0,0,0,0,0,0,0,0,0,0,0,0,0,0,0,0,0,0,0,0,0,0,0,0,0,0,0,0,0,0,0,0,0,0,0,0,0,0,0,0,0,0,0,0,0,0,0,0,0,0,0.0379,0.0379,0,0.0521,0.0525,0.0528,0.0739,0.0741,0.0743,0.0745,0.1018,0.1023,0.1029,0,0,0,0,0,0,0,0,0,0,0,0,0,0.034,0.0341,0.0379,0.0379,0.0379,0.0521,0.0525,0.0529,0.0739,0.0741,0.0744,0.0746,0.1016,0.1023,0.1029,0,0,0,0,0,0,0,0,0,0,0,0,0,0.0426,0.0341,0.0379,0.0486,0.0496,0.052,0.0525,0.053,0.0739,0.0741,0.0744,0.0747,0.1014,0.1022,0.103,0.1025,0,0,0.1056,0.1059,0,0,0,0,0,0,0,0,0.0421,0.043,0.047,0.0478,0.0489,0.0598,0.061,0.0695,0.0738,0.0668,0.0745,0.0748,0.0874,0.0894,0.0942,0.1038,0.105,0.1056,0.1061,0.1065,0.1067,0,0,0,0,0,0,0,0.0414,0.0425,0.0456,0.0469,0.0481,0.0543,0.056,0.0629,0.0771,0.0674,0.0685,0.0668,0.0884,0.0933,0.095,0.1054,0.1056,0.1063,0.1069,0.1072,0.1395,0.1398,0,0,0,0,0,0,0.035,0.0418,0.0451,0.0458,0.0438,0.0539,0.056,0.0577,0.0768,0.0793,0.0665,0.0676,0.0918,0.094,0.096,0.125,0.1065,0.1073,0.1077,0.1391,0.1395,0.1399,0,0,0,0,0,0,0.035,0.0353,0.0445,0.0424,0.0437,0.0535,0.0553,0.0577,0.0712,0.0756,0.0789,0.0781,0.0921,0.0948,0.1119,0.1251,0.1076,0.1084,0.1387,0.1392,0.1397,0.1646,0,0,0,0,0,0,0.0349,0.0354,0.0386,0.042,0.0435,0.0524,0.0549,0.0577,0.0681,0.0701,0.0864,0.0888,0.0925,0.1107,0.1128,0.1259,0.109,0.1382,0.1389,0.1396,0.1633,0.1659,0.1681,0,0,0,0,0,0.0348,0.0385,0.0387,0.0392,0.0464,0.0524,0.0545,0.0633,0.0684,0.0766,0.0886,0.0887,0.1163,0.1118,0.1141,0.1278,0.1379,0.1387,0.1395,0.1622,0.1654,0.168,0,0,0,0,0,0,0.0394,0.0407,0.0413,0.0455,0.0502,0.0554,0.0618,0.0675,0.0834,0.0895,0.0948,0.0981,0.1174,0.1172,0.112,0.138,0.1265,0.1278,0.1429,0.1459,0.1483,0.1443,0.1097,0,0,0,0,0,0.0399,0.044,0.0452,0.0494,0.0513,0.0579,0.0626,0.0707,0.0809,0.0888,0.1005,0.1114,0.1207,0.1294,0.1373,0.1526,0.1385,0.1616,0.1641,0.1662,0.164,0.1535,0.1546,0.1426,0.1426,0.1426,0,0,0.041,0.0432,0.0448,0.0506,0.0549,0.0646,0.0627,0.0742,0.0884,0.0887,0.1158,0.1213,0.126,0.1446,0.1529,0.1481,0.162,0.1672,0.1691,0.1656,0.1544,0.1555,0.1565,0.1431,0.143,0.143,0,0,0.0467,0.0488,0.0547,0.0594,0.0675,0.0744,0.0791,0.0917,0.1039,0.1259,0.1286,0.1406,0.1608,0.1648,0.1687,0.1874,0.1741,0.1926,0.2048,0.195,0.1957,0.1962,0.1779,0.1766,0.1952,0.1953,0.1953,0,0.049,0.0567,0.0577,0.0655,0.0721,0.0801,0.0921,0.1044,0.1243,0.1327,0.1392,0.1624,0.1693,0.1816,0.1914,0.1933,0.1817,0.195,0.1978,0.198,0.1981,0.1792,0.1774,0.1966,0.1964,0.1963,0.1962,0,0.0573,0.0666,0.0708,0.0846,0.0936,0.1052,0.1181,0.1351,0.1519,0.1613,0.1817,0.1899,0.2004,0.2072,0.2084,0.2144,0.2036,0.201,0.1901,0.2008,0.1801,0.1778,0.1984,0.198,0.1976,0.1973,0,0,0.0564,0.0736,0.0762,0.0863,0.1059,0.1144,0.1384,0.1575,0.1694,0.1923,0.2044,0.225,0.2247,0.228,0.2287,0.2249,0.2187,0.2171,0.216,0.1978,0.1902,0.1851,0.1818,0.2177,0.2175,0.2174,0.1747,0,0.0647,0.0806,0.0915,0.115,0.1244,0.1406,0.1593,0.1783,0.1945,0.2086,0.2166,0.2288,0.2336,0.2386,0.237,0.2229,0.2141,0.2299,0.1831,0.1814,0.175,0.1797,0.2168,0.1728,0.1723,0.1718,0.1715,0,0.0706,0.0814,0.1027,0.1275,0.1335,0.1532,0.1798,0.1959,0.2127,0.2231,0.234,0.2374,0.2408,0.2402,0.2208,0.2312,0.2127,0.1997,0.1976,0.1818,0.1723,0.1601,0.167,0.1674,0.1677,0.168,0.1683,0,0.0651,0.091,0.1099,0.1177,0.1464,0.1649,0.1818,0.2021,0.2117,0.2275,0.2323,0.2379,0.2364,0.2224,0.2012,0.2117,0.1674,0.1763,0.1506,0.1493,0.155,0.1549,0.1542,0.1542,0.1543,0.1545,0.1546,0,0.068,0.0832,0.111,0.1197,0.1453,0.1642,0.1867,0.203,0.2164,0.2154,0.2359,0.2256,0.2322,0.2105,0.1939,0.1612,0.1593,0.1496,0.1397,0.1663,0.168,0.153,0.1534,0.1529,0.1532,0.1535,0.1538,0,0.0616,0.078,0.1002,0.1322,0.1438,0.1615,0.1881,0.1964,0.2119,0.209,0.2132,0.215,0.1917,0.1854,0.1526,0.1473,0.1178,0.1018,0.1197,0.1118,0.1089,0.1111,0.0808,0.0803,0.0799,0.0795,0.0792,0,0.061,0.0714,0.1037,0.1162,0.1356,0.1596,0.1716,0.1933,0.1918,0.1879,0.1774,0.1684,0.1645,0.1169,0.1105,0.085,0.0828,0.0701,0.1076,0.1087,0.1021,0.105,0.1077,0.0786,0.0784,0.0783,0.0782,0,0.0626,0.0753,0.0926,0.1079,0.1291,0.142,0.1553,0.1531,0.1604,0.1755,0.1475,0.1405,0.1129,0.1009,0.0842,0.0616,0.0868,0.0661,0.0675,0.1026,0.1056,0.1001,0.1033,0.0768,0.077,0.0771,0.0772,0,0.0665,0.0729,0.088,0.1024,0.1185,0.1156,0.1287,0.1254,0.1292,0.1303,0.1076,0.098,0.0969,0.0843,0.0554,0.0524,0.0622,0.0692,0.0707,0.0723,0.0919,0.0959,0.0527,0,0,0,0,0,0.0684,0.0662,0.0771,0.0869,0.0967,0.1028,0.1102,0.1183,0.1206,0.1027,0.1112,0.0853,0.0706,0.0581,0.0547,0.0489,0.0576,0.0444,0.0656,0.0687,0.0704,0.0958,0,0,0,0,0,0,0.0675,0.0764,0.0711,0.0657,0.0664,0.0721,0.0768,0.082,0.0729,0.0791,0.0705,0.0833,0.067,0.0718,0.0526,0.0513,0.0644,0.0429,0.0429,0.0677,0.0692,0.0706,0.0974,0,0,0,0,0]},{"header":{"parameterUnit":"m.s-1","parameterCategory":2,"la1":30.2991,"la2":30.254,"lo1":-89.0895,"lo2":-89.0444,"dy":0.0017,"dx":0.0017,"nx":28,"ny":28,"refTime":"2023-08-09T21:00:00:Z","depth":"4","parameterNumber":3,"parameterNumberName":"V-component_of_CURRENTS"},"data":[0,0,0,0,0,0,0,0,0,0,0,0,0,0,0,0,0,0,0,0,0,0,0,0,0,0,0,0,0,0,0,0,0,0,0,0,0,0,0,0,0,0,0,0,0,0,0,0,0,0,0,0,0,0,0,0,0,0,0.0356,0.0355,0,0.0267,0.0266,0.0266,0.0285,0.0286,0.0287,0.0288,0.0065,0.0058,0.0052,0,0,0,0,0,0,0,0,0,0,0,0,0,0.0467,0.0466,0.0356,0.0354,0.0353,0.0267,0.0266,0.0266,0.0285,0.0286,0.0288,0.0289,0.0067,0.0059,0.0051,0,0,0,0,0,0,0,0,0,0,0,0,0,0.041,0.0466,0.0357,0.0346,0.0344,0.0267,0.0266,0.0266,0.0285,0.0286,0.0288,0.0289,0.007,0.006,0.005,-0.0043,0,0,0.0018,0.0014,0,0,0,0,0,0,0,0,0.0413,0.0407,0.035,0.0347,0.0344,0.0282,0.0223,0.0153,0.0285,0.0315,0.0288,0.029,0.0119,0.0105,0.0098,-0.0054,-0.0063,0.0018,0.0011,0.0007,0.0004,0,0,0,0,0,0,0,0.0417,0.041,0.0328,0.0347,0.0344,0.0319,0.0314,0.0211,0.0213,0.0313,0.0312,0.029,0.0118,0.0108,0.0092,-0.0066,0.0018,0.0009,0.0002,-0.0002,-0.0288,-0.029,0,0,0,0,0,0,0.0415,0.0414,0.0331,0.0325,0.0374,0.0316,0.0311,0.0307,0.0217,0.0204,0.0288,0.0291,0.0124,0.0104,0.0084,0.0043,0.0007,-0.0003,-0.0009,-0.0287,-0.0289,-0.029,0,0,0,0,0,0,0.0418,0.0409,0.0335,0.036,0.0348,0.0312,0.0307,0.0304,0.0326,0.0199,0.0185,0.0317,0.0125,0.0098,0.0008,0.0031,-0.0007,-0.0017,-0.0285,-0.0288,-0.029,-0.0089,0,0,0,0,0,0,0.0422,0.0412,0.0423,0.0361,0.0346,0.0302,0.0305,0.0301,0.0303,0.0307,0.0217,0.0197,0.0124,0.0024,-0.0002,0.0016,-0.0025,-0.0283,-0.0286,-0.0289,-0.0094,-0.0084,-0.0076,0,0,0,0,0,0.0427,0.0423,0.0424,0.0414,0.0359,0.03,0.0293,0.0276,0.0304,0.0306,0.0247,0.0201,-0.0012,0.0015,-0.0016,0.0,-0.0282,-0.0285,-0.0289,-0.0098,-0.0086,-0.0076,0,0,0,0,0,0,0.0464,0.0422,0.0422,0.0405,0.0364,0.0302,0.0292,0.0296,0.0258,0.0274,0.018,0.0153,0.0078,-0.0007,0.0026,-0.0099,-0.0155,-0.0164,0.0,0.001,0.0019,0.0044,-0.0033,0,0,0,0,0,0.0478,0.0479,0.0421,0.0409,0.039,0.0356,0.0338,0.0337,0.0284,0.0276,0.0218,0.0133,0.0032,-0.0008,-0.0113,-0.0178,-0.0279,-0.0195,-0.0185,-0.0176,-0.0183,-0.0369,-0.0376,-0.0301,-0.0301,-0.0301,0,0,0.0477,0.0463,0.0456,0.0419,0.0389,0.0358,0.0352,0.0338,0.0334,0.0246,0.0233,0.0156,0.0014,-0.0053,-0.0094,-0.0109,-0.0235,-0.0181,-0.0171,-0.0183,-0.0373,-0.038,-0.0387,-0.0303,-0.0303,-0.0302,0,0,0.0473,0.0474,0.047,0.0435,0.0404,0.0386,0.0392,0.036,0.0372,0.0354,0.0268,0.0194,0.0099,-0.002,-0.009,-0.0112,-0.0192,-0.0116,-0.0031,-0.021,-0.0217,-0.0225,-0.0271,-0.0285,-0.0096,-0.0096,-0.0096,0,0.0482,0.0474,0.0455,0.0431,0.0414,0.0404,0.0394,0.038,0.0337,0.0331,0.0376,0.0198,0.0101,-0.0052,-0.002,-0.009,-0.0148,-0.0041,-0.0193,-0.0204,-0.0215,-0.0263,-0.0281,-0.0087,-0.0088,-0.0089,-0.009,0,0.0451,0.0455,0.0442,0.0426,0.041,0.0398,0.0371,0.0389,0.0443,0.0422,0.0356,0.0244,0.0151,0.0107,0.0066,-0.0069,-0.0062,-0.0163,-0.0201,-0.021,-0.026,-0.0281,-0.0073,-0.0077,-0.0079,-0.0082,0,0,0.0457,0.0434,0.0435,0.0449,0.0421,0.0413,0.0412,0.0398,0.0405,0.0403,0.0377,0.0264,0.0261,0.0175,0.0086,-0.0045,-0.0117,-0.0078,-0.0091,-0.0085,-0.0394,-0.0249,-0.0259,-0.0221,-0.0226,-0.023,-0.0361,0,0.0453,0.043,0.0433,0.0441,0.0426,0.0436,0.0439,0.0429,0.0441,0.0407,0.0309,0.0261,0.0264,0.0267,0.0135,-0.0116,-0.0179,-0.0066,-0.0423,-0.0432,-0.0274,-0.0285,-0.0246,-0.0378,-0.0383,-0.0387,-0.039,0,0.0431,0.0429,0.0447,0.0477,0.0479,0.0538,0.0569,0.0566,0.049,0.0496,0.0438,0.0357,0.0195,0.0207,-0.0134,-0.0042,-0.015,-0.0318,-0.033,-0.0292,-0.0332,-0.0402,-0.0431,-0.0428,-0.0425,-0.0422,-0.042,0,0.0443,0.045,0.05,0.0493,0.0515,0.0616,0.0676,0.0646,0.0633,0.0584,0.0543,0.0361,0.0267,0.005,-0.0159,-0.015,-0.0542,-0.0613,-0.0574,-0.0562,-0.0739,-0.0732,-0.0813,-0.0813,-0.0812,-0.0812,-0.0812,0,0.0434,0.0462,0.0562,0.0577,0.0697,0.072,0.083,0.084,0.0796,0.069,0.0645,0.0474,0.0223,-0.0011,-0.0182,-0.041,-0.0544,-0.055,-0.0611,-0.0638,-0.0619,-0.0749,-0.0739,-0.0817,-0.0816,-0.0815,-0.0814,0,0.0427,0.0467,0.0527,0.0639,0.0719,0.0835,0.0973,0.0966,0.0968,0.0815,0.0808,0.0539,0.0262,0.0055,-0.0348,-0.043,-0.0683,-0.0701,-0.0608,-0.0664,-0.0565,-0.0544,-0.0715,-0.0712,-0.0709,-0.0706,-0.0704,0,0.0416,0.0454,0.0595,0.0679,0.0793,0.0967,0.1032,0.1087,0.0996,0.0778,0.0614,0.0423,0.0235,-0.0178,-0.0391,-0.0604,-0.0621,-0.0678,-0.0689,-0.0524,-0.0568,-0.0552,-0.0536,-0.0699,-0.0699,-0.0698,-0.0697,0,0.0401,0.0482,0.0529,0.0669,0.0829,0.0898,0.0983,0.0939,0.0849,0.0823,0.048,0.0328,0.0033,-0.0222,-0.0278,-0.0491,-0.0638,-0.0649,-0.0658,-0.0668,-0.0508,-0.055,-0.0538,-0.0687,-0.0688,-0.0689,-0.069,0,0.0418,0.0435,0.0505,0.0646,0.0787,0.079,0.0857,0.0752,0.0712,0.049,0.0338,0.0115,-0.0024,-0.017,-0.0337,-0.0386,-0.0437,-0.0481,-0.05,-0.0513,-0.0388,-0.015,-0.0272,0,0,0,0,0,0.0422,0.0399,0.0461,0.0557,0.0672,0.0758,0.0742,0.0741,0.0654,0.0434,0.0422,0.0173,-0.0016,-0.0171,-0.0195,-0.0301,-0.0448,-0.0334,-0.0507,-0.063,-0.0642,-0.0514,0,0,0,0,0,0,0.0395,0.0433,0.0401,0.0461,0.054,0.0601,0.0626,0.0556,0.042,0.0347,0.0238,0.0208,0.0017,0.0046,-0.0176,-0.0206,-0.0316,-0.0415,-0.0415,-0.0623,-0.0634,-0.0643,-0.0516,0,0,0,0,0]}]]